Stations météo

réclame
Mon MeteoGroup
Freiburg, Allemagne (10803): Température de l'air & dewpoint: 11.01.2018 08:00:00 - 17.01.2018 08:00:00 (CET)Freiburg, Allemagne (10803): Température de l'air 5cm & Température de l'air -5cm: 11.01.2018 08:00:00 - 17.01.2018 08:00:00 (CET)Freiburg, Allemagne (10803): Température de l'air -20cm & Température de l'air -100cm: 11.01.2018 08:00:00 - 17.01.2018 08:00:00 (CET)Freiburg, Allemagne (10803): Vitesse du vent & gusts: 11.01.2018 08:00:00 - 17.01.2018 08:00:00 (CET)Freiburg, Allemagne (10803): Direction du vent: 11.01.2018 08:00:00 - 17.01.2018 08:00:00 (CET)Freiburg, Allemagne (10803): reduced air pressure: 11.01.2018 08:00:00 - 17.01.2018 08:00:00 (CET)Freiburg, Allemagne (10803): visibility: 11.01.2018 08:00:00 - 17.01.2018 08:00:00 (CET)Freiburg, Allemagne (10803): Ensoleillement: 11.01.2018 08:00:00 - 17.01.2018 08:00:00 (CET)Freiburg, Allemagne (10803): Quantités de précipitations: 11.01.2018 08:00:00 - 17.01.2018 08:00:00 (CET)
Date & Time tt [°C] td [°C] tt 5cm [°C] tt -5cm [°C] tt -20cm [°C] tt -100cm [°C] ff [km/h] ff [knt] fx [km/h] fx [knt] dd ppp [hPa] vv [km] sd [min] rr [mm]
17.01.2018 08:00:00 4,2 -1,4 3,3 2,6 4,6 6,8 21 11 36 19 WSW 1005,4 70 0 0,0
17.01.2018 07:00:00 4,0 0,8 3,3 3,2 4,7 6,8 14 8 34 19 SW 1004,1 70 0 0,0
17.01.2018 06:00:00 4,0 1,8 3,4 3,5 4,8 6,8 27 15 41 22 SSW 1003,4 70 0 0,0
17.01.2018 05:00:00 4,1 2,1 3,3 3,7 4,9 6,9 26 14 43 23 SW 1002,8 70 0 0,0
17.01.2018 04:00:00 4,2 2,6 3,5 4,0 4,9 6,9 13 7 41 22 SW 1002,0 70 0 0,3
17.01.2018 03:00:00 5,5 3,5 4,5 4,3 5,0 6,9 16 8 32 17 SW 1001,6 30 0 0,0
17.01.2018 02:00:00 5,4 3,9 4,4 4,3 5,0 6,9 15 8 32 17 SW 1001,1 69 0 0,0
17.01.2018 01:00:00 4,6 2,8 3,7 4,5 5,1 6,9 21 11 52 28 WSW 1001,3 44 0 4,5
17.01.2018 00:00:00 6,5 2,6 5,6 4,6 5,2 6,9 24 13 35 19 SSW 1001,0 70 0 0,0
16.01.2018 23:00:00 6,0 3,2 4,6 4,6 5,3 6,9 15 8 27 15 SSW 1002,2 70 0 0,1
16.01.2018 22:00:00 6,4 4,5 5,4 4,7 5,4 6,9 16 9 23 13 SW 1002,8 53 0 0,0
16.01.2018 21:00:00 4,6 3,6 3,7 4,9 5,4 6,9 11 6 33 18 S 1003,1 70 0 0,9
16.01.2018 20:00:00 5,4 3,7 4,7 5,5 5,5 6,9 19 11 34 18 WNW 1003,3 9 0 3,2
16.01.2018 19:00:00 7,4 3,9 6,5 5,5 5,5 7,0 19 10 42 23 SW 1002,4 68 0 0,0
16.01.2018 18:00:00 7,4 4,3 6,6 5,6 5,6 7,0 24 13 40 21 SSW 1002,7 70 0 0,0
16.01.2018 17:00:00 8,1 4,7 7,2 6,1 5,5 7,0 27 15 36 20 SW 1002,4 70 0 0,0
16.01.2018 16:00:00 8,4 4,2 7,5 6,7 5,5 7,0 22 12 36 19 SSW 1003,0 70 15 0,0
16.01.2018 15:00:00 8,4 5,5 7,2 7,1 5,3 7,0 9 5 32 17 WNW 1002,6 70 0 0,3
16.01.2018 14:00:00 7,9 6,5 7,3 7,0 5,2 7,0 24 13 53 28 WSW 1002,5 70 0 0,4
16.01.2018 13:00:00 8,7 5,2 7,7 7,2 5,0 7,0 35 19 66 36 SW 1001,9 70 0 0,0
16.01.2018 12:00:00 8,9 6,3 8,1 6,9 4,8 7,0 35 19 52 28 SW 1002,0 46 0 0,0
16.01.2018 11:00:00 8,7 5,9 8,1 6,5 4,7 7,0 35 19 49 27 SW 1002,8 70 0 0,9
16.01.2018 10:00:00 7,7 6,7 7,0 6,0 4,5 7,0 29 16 49 26 SW 1003,3 44 0 3,0
16.01.2018 09:00:00 8,1 5,9 7,1 5,7 4,4 7,1 33 18 52 28 SW 1003,1 70 0 0,1
16.01.2018 08:00:00 8,1 4,9 7,3 5,5 4,3 7,1 32 18 57 31 SSW 1002,4 70 0 0,0
16.01.2018 07:00:00 8,6 4,5 7,8 5,6 4,2 7,1 36 20 67 36 SW 1002,5 70 0 0,0
16.01.2018 06:00:00 8,4 4,7 7,6 5,5 4,1 7,1 34 18 60 33 SW 1002,5 70 0 0,0
16.01.2018 05:00:00 8,3 4,3 7,6 5,3 3,9 7,1 35 19 61 33 SW 1003,4 70 0 0,0
16.01.2018 04:00:00 8,2 4,2 7,2 5,2 3,8 7,1 31 17 55 30 SW 1004,5 44 0 0,0
16.01.2018 03:00:00 8,0 4,5 7,0 5,1 3,6 7,1 36 20 60 32 SSW 1004,9 67 0 0,0
16.01.2018 02:00:00 8,4 4,2 7,5 5,0 3,4 7,1 35 19 56 30 SSW 1005,3 70 0 0,0
16.01.2018 01:00:00 8,0 4,2 7,1 4,8 3,3 7,1 27 15 45 24 SSW 1005,6 70 0 0,0
16.01.2018 00:00:00 7,6 4,1 6,6 4,5 3,1 7,2 27 15 52 28 SSW 1006,4 45 0 0,1
15.01.2018 23:00:00 7,6 3,5 6,0 4,2 2,9 7,2 29 16 47 25 SSW 1006,4 33 0 0,0
15.01.2018 22:00:00 7,3 3,3 5,7 4,0 2,7 7,2 24 13 54 29 SSW 1006,8 47 0 0,0
15.01.2018 21:00:00 7,0 3,3 5,8 3,9 2,5 7,2 32 17 61 33 SW 1007,7 48 0 0,1
15.01.2018 20:00:00 6,7 3,4 5,2 3,7 2,2 7,2 33 18 56 30 SW 1008,7 20 0 0,0
15.01.2018 19:00:00 9,4 0,8 7,9 3,3 1,9 7,2 26 14 49 27 SSW 1008,3 70 0 0,0
15.01.2018 18:00:00 8,7 1,0 7,2 2,6 1,7 7,2 29 15 42 23 SSW 1009,9 56 0 0,0
15.01.2018 17:00:00 7,9 1,1 6,4 1,6 1,5 7,2 22 12 37 20 SSW 1010,9 49 0 0,0
15.01.2018 16:00:00 8,0 0,8 6,7 1,1 1,4 7,3 19 10 36 20 SSW 1012,2 50 0 0,0
15.01.2018 15:00:00 8,2 0,6 7,1 0,7 1,4 7,3 19 11 30 16 SW 1013,9 49 2 0,0
15.01.2018 14:00:00 8,0 0,9 7,3 0,0 1,5 7,3 12 6 22 12 SW 1015,3 41 0 0,0
15.01.2018 13:00:00 8,1 0,3 7,0 -0,1 1,5 7,3 18 10 32 17 SW 1016,5 47 0 0,0
15.01.2018 12:00:00 7,7 0,2 6,2 -0,2 1,5 7,3 18 10 31 17 SSW 1017,6 45 0 0,0
15.01.2018 11:00:00 1,8 0,7 2,2 -0,3 1,5 7,3 4 2 11 6 SW 1019,5 8 0 0,0
15.01.2018 10:00:00 -0,3 -1,0 -0,1 -0,5 1,5 7,3 5 3 8 4 SW 1020,1 6 0 0,0
15.01.2018 09:00:00 -1,6 -2,3 -1,3 -0,8 1,6 7,3 2 1 4 2 SSW 1020,7 6 0 0,0
15.01.2018 08:00:00 -3,6 -4,6 -4,4 -1,2 1,6 7,3 0 0 4 2 N 1021,2 7 0 0,0
15.01.2018 07:00:00 -4,5 -5,5 -5,3 -1,3 1,7 7,3 3 2 5 3 NW 1021,6 6 0 0,0
15.01.2018 06:00:00 -4,8 -5,4 -7,2 -1,6 1,8 7,4 2 1 4 2 S 1021,7 3,2 0 0,0
15.01.2018 05:00:00 -4,8 -5,5 -6,5 -1,3 1,8 7,4 0 0 4 2 N 1022,2 2,2 0 0,0
15.01.2018 04:00:00 -4,4 -4,6 -6,7 -1,0 1,9 7,4 0 0 5 3 N 1022,5 1,9 0 0,0
15.01.2018 03:00:00 -4,3 -5,1 -7,0 -0,7 1,9 7,4 3 2 5 3 ESE 1023,0 3,1 0 0,0
15.01.2018 02:00:00 -3,4 -3,7 -6,6 -0,4 2,0 7,4 4 2 5 3 NNW 1023,0 3,4 0 0,0
15.01.2018 01:00:00 -3,7 -4,5 -6,3 -0,2 2,1 7,4 4 2 5 3 ENE 1023,6 2,0 0 0,0
15.01.2018 00:00:00 -3,8 -4,5 -6,7 0,0 2,1 7,4 2 1 5 3 SSE 1023,7 0,3 0 0,0
14.01.2018 23:00:00 -3,6 -4,0 -5,0 0,1 2,2 7,4 0 0 3 2 N 1023,8 2,6 0 0,0
14.01.2018 22:00:00 -3,1 -3,7 -4,8 0,2 2,2 7,4 0 0 6 4 N 1023,6 2,4 0 0,0
14.01.2018 21:00:00 -3,3 -4,1 -5,0 0,2 2,3 7,4 4 2 6 4 NNW 1023,6 2,3 0 0,0
14.01.2018 20:00:00 -2,1 -2,6 -4,6 0,3 2,3 7,5 0 0 5 3 N 1023,4 3,2 0 0,0
14.01.2018 19:00:00 -1,3 -2,8 -3,5 0,4 2,4 7,5 4 2 5 3 SSE 1023,1 6 0 0,0
14.01.2018 18:00:00 0,5 -1,7 -3,2 0,4 2,5 7,5 2 1 10 5 N 1022,6 6 0 0,0
14.01.2018 17:00:00 2,1 -1,3 -1,5 1,5 2,5 7,5 5 3 8 4 WSW 1021,9 8 4 0,0
14.01.2018 16:00:00 4,0 -0,6 3,6 3,1 2,3 7,5 6 4 9 5 WSW 1021,5 10 60 0,0
14.01.2018 15:00:00 4,6 -1,6 6,1 3,7 2,0 7,5 4 2 11 6 SW 1021,0 16 0 0,0
14.01.2018 14:00:00 4,0 -1,7 5,9 2,6 1,9 7,5 6 3 9 5 SSW 1021,2 17 60 0,0
14.01.2018 13:00:00 3,6 -2,0 5,4 1,3 2,0 7,5 4 2 6 4 W 1021,7 16 60 0,0
14.01.2018 12:00:00 1,9 -2,2 3,6 0,0 2,0 7,5 2 1 6 4 W 1022,2 15 60 0,0
14.01.2018 11:00:00 0,4 -1,3 3,5 -0,3 2,1 7,5 4 2 5 3 NNW 1022,7 12 60 0,0
14.01.2018 10:00:00 -1,3 -2,2 -0,9 -0,6 2,2 7,5 1 0 3 2 SSW 1022,6 6 48 0,0
14.01.2018 09:00:00 -4,7 -5,4 -6,0 -1,3 2,3 7,5 0 0 4 2 N 1022,6 6 0 0,0
14.01.2018 08:00:00 -5,1 -5,9 -7,1 -1,2 2,4 7,5 0 0 3 2 N 1022,4 8 0 0,0
14.01.2018 07:00:00 -4,9 -5,6 -7,2 -1,0 2,5 7,6 3 2 4 2 N 1022,3 4,9 0 0,0
14.01.2018 06:00:00 -4,2 -4,8 -6,9 -0,7 2,6 7,6 0 0 5 3 N 1021,8 6 0 0,0
14.01.2018 05:00:00 -4,1 -4,7 -6,8 -0,4 2,7 7,6 2 1 5 3 NE 1021,8 5 0 0,0
14.01.2018 04:00:00 -4,2 -5,2 -6,5 -0,2 2,8 7,6 3 1 4 2 S 1021,9 7 0 0,0
14.01.2018 03:00:00 -3,9 -4,2 -6,1 0,0 2,9 7,6 0 0 3 2 N 1022,1 3,1 0 0,0
14.01.2018 02:00:00 -3,7 -3,9 -5,8 0,1 3,0 7,6 0 0 3 1 N 1022,0 1,1 0 0,0
14.01.2018 01:00:00 -2,9 -3,3 -5,3 0,2 3,2 7,6 2 1 4 2 W 1021,9 2,8 0 0,0
14.01.2018 00:00:00 -3,4 -3,6 -5,7 0,3 3,3 7,6 0 0 4 2 N 1022,4 0,3 0 0,0
13.01.2018 23:00:00 -2,5 -2,8 -4,9 0,5 3,5 7,6 0 0 3 2 N 1022,0 3,0 0 0,0
13.01.2018 22:00:00 -2,6 -3,9 -4,7 0,6 3,7 7,6 0 0 6 3 N 1022,5 9 0 0,0
13.01.2018 21:00:00 -1,0 -1,8 -3,6 0,7 3,9 7,6 4 2 6 3 NE 1022,3 6 0 0,0
13.01.2018 20:00:00 -0,3 -1,8 -3,5 0,8 4,2 7,6 3 2 5 3 WSW 1022,2 9 0 0,0
13.01.2018 19:00:00 0,8 -1,2 -3,3 0,9 4,5 7,6 2 1 7 4 SE 1022,2 10 0 0,0
13.01.2018 18:00:00 1,7 -1,5 -2,4 2,2 4,7 7,6 3 1 10 6 E 1022,2 14 0 0,0
13.01.2018 17:00:00 3,7 0,0 1,0 4,1 4,7 7,6 9 5 15 8 NNW 1022,1 15 3 0,0
13.01.2018 16:00:00 6,4 -1,3 7,2 6,2 4,5 7,6 6 3 9 5 N 1021,7 29 60 0,0
13.01.2018 15:00:00 6,6 -1,9 9,5 7,4 4,0 7,6 6 3 13 7 N 1022,0 34 60 0,0
13.01.2018 14:00:00 6,4 -2,0 10,2 7,4 3,6 7,6 4 2 12 7 N 1022,6 32 35 0,0
13.01.2018 13:00:00 5,5 -1,5 5,8 4,9 3,3 7,7 9 5 22 12 SE 1023,3 32 11 0,0
13.01.2018 12:00:00 6,0 -1,0 7,7 5,2 3,0 7,7 13 7 24 13 SE 1023,8 35 48 0,0
13.01.2018 11:00:00 5,4 -1,3 5,7 1,5 3,0 7,7 11 6 22 12 ESE 1024,1 24 29 0,0
13.01.2018 10:00:00 4,5 -1,2 2,5 0,5 3,0 7,7 14 8 23 12 ESE 1024,1 25 0 0,0
13.01.2018 09:00:00 -0,7 -1,3 -0,7 0,5 3,1 7,7 4 2 13 7 NE 1024,7 9 0 0,0
13.01.2018 08:00:00 -1,8 -2,3 -2,4 0,4 3,2 7,7 3 1 6 3 N 1025,3 6 0 0,0
13.01.2018 07:00:00 -1,2 -2,0 -2,4 0,5 3,3 7,7 4 2 8 5 NW 1025,4 6 0 0,0
13.01.2018 06:00:00 -0,5 -0,9 -0,8 0,5 3,4 7,7 3 2 8 4 N 1025,4 6 0 0,0
13.01.2018 05:00:00 -1,0 -1,4 -1,1 0,5 3,5 7,7 0 0 5 3 N 1025,8 5 0 0,0
13.01.2018 04:00:00 -1,8 -2,4 -2,1 0,5 3,6 7,7 2 1 4 2 NW 1026,5 7 0 0,0
13.01.2018 03:00:00 -1,8 -2,5 -3,0 0,5 3,7 7,7 0 0 4 2 N 1026,8 8 0 0,0
13.01.2018 02:00:00 -2,0 -2,3 -3,3 0,6 3,9 7,7 2 1 5 3 W 1026,4 1,6 0 0,0
13.01.2018 01:00:00 -2,4 -3,0 -3,3 0,6 4,1 7,7 4 2 8 4 NNW 1026,5 4,8 0 0,0
13.01.2018 00:00:00 -1,3 -2,1 -2,6 0,8 4,4 7,7 5 3 10 5 NNE 1026,5 6 0 0,0
12.01.2018 23:00:00 -0,7 -0,9 -3,6 0,9 4,6 7,7 3 1 6 4 N 1026,6 4,4 0 0,0
12.01.2018 22:00:00 -1,4 -1,6 -2,8 1,0 5,0 7,7 4 2 7 4 W 1026,7 2,6 0 0,0
12.01.2018 21:00:00 0,1 -0,1 -2,3 1,5 5,3 7,7 3 2 6 3 NE 1026,5 4,1 0 0,0
12.01.2018 20:00:00 1,0 0,6 -1,2 2,6 5,5 7,7 5 3 6 4 NE 1026,3 3,0 0 0,0
12.01.2018 19:00:00 1,7 1,0 -0,7 3,5 5,7 7,7 4 2 5 3 NNE 1026,4 6 0 0,0
12.01.2018 18:00:00 3,4 2,2 2,2 4,7 5,8 7,7 4 2 7 4 NW 1025,9 8 0 0,0
12.01.2018 17:00:00 4,3 2,5 4,0 5,4 5,8 7,7 6 4 11 6 NNW 1025,5 10 0 0,0
12.01.2018 16:00:00 5,2 2,5 5,3 6,4 5,8 7,7 6 3 10 5 NW 1025,2 15 0 0,0
12.01.2018 15:00:00 5,0 2,9 5,8 6,8 5,6 7,7 9 5 14 7 NNW 1024,9 12 0 0,0
12.01.2018 14:00:00 5,0 2,7 6,8 8,1 5,3 7,7 7 4 10 6 NNW 1024,9 14 6 0,0
12.01.2018 13:00:00 4,8 1,4 9,2 9,5 4,8 7,7 3 2 9 5 NW 1025,0 17 55 0,0
12.01.2018 12:00:00 3,2 2,1 5,5 5,8 4,6 7,7 5 3 8 5 W 1025,6 10 4 0,0
12.01.2018 11:00:00 2,2 1,8 3,2 4,1 4,6 7,7 5 3 8 4 SW 1025,6 6 0 0,0
12.01.2018 10:00:00 1,5 1,4 2,6 3,4 4,6 7,8 4 2 10 5 NNW 1025,3 0,4 0 0,0
12.01.2018 09:00:00 2,1 2,1 2,5 3,3 4,6 7,8 4 2 6 3 NNW 1024,4 0,4 0 0,0
12.01.2018 08:00:00 2,5 2,3 2,7 3,3 4,6 7,8 3 2 6 3 NNE 1024,2 3,8 0 0,0
12.01.2018 07:00:00 2,6 2,2 2,8 3,2 4,6 7,8 2 1 8 5 S 1023,8 13 0 0,0
12.01.2018 06:00:00 1,8 1,8 2,0 2,8 4,7 7,8 6 3 9 5 N 1023,7 0,3 0 0,0
12.01.2018 05:00:00 1,5 1,5 1,5 2,9 4,8 7,8 0 0 5 3 N 1023,5 0,1 0 0,0
12.01.2018 04:00:00 2,1 2,1 2,0 3,2 4,8 7,8 3 2 6 4 W 1023,0 0,1 0 0,0
12.01.2018 03:00:00 2,6 2,6 2,7 3,3 4,9 7,8 3 2 6 3 N 1022,7 0,1 0 0,0
12.01.2018 02:00:00 2,4 2,3 2,4 3,1 5,0 7,8 4 2 7 4 NNE 1022,3 2,6 0 0,0
12.01.2018 01:00:00 2,5 2,5 2,3 3,1 5,1 7,8 4 2 6 3 NNW 1022,0 0,1 0 0,0
12.01.2018 00:00:00 3,0 3,0 2,8 3,2 5,2 7,8 5 3 6 3 SW 1021,6 0,1 0 0,0
11.01.2018 23:00:00 1,8 1,8 0,1 2,4 5,4 7,8 3 2 5 3 S 1021,3 0,1 0 0,0
11.01.2018 22:00:00 2,8 2,8 0,5 3,2 5,6 7,8 2 1 5 3 SW 1020,6 0,1 0 0,0
11.01.2018 21:00:00 3,3 3,2 2,5 3,9 5,7 7,8 0 0 5 3 N 1020,2 1,4 0 0,0
11.01.2018 20:00:00 3,7 3,5 1,4 4,2 5,9 7,8 4 2 6 3 NNW 1019,7 3,5 0 0,0
11.01.2018 19:00:00 4,3 3,7 3,2 4,8 6,0 7,8 0 0 5 3 N 1019,1 6 0 0,0
11.01.2018 18:00:00 4,3 3,7 2,7 4,8 6,1 7,8 4 2 6 3 N 1018,6 4,8 0 0,0
11.01.2018 17:00:00 5,4 4,0 2,6 6,3 6,1 7,8 5 3 9 5 N 1017,8 14 0 0,0
11.01.2018 16:00:00 7,7 3,8 10,1 8,0 5,8 7,8 5 3 12 6 N 1017,0 19 31 0,0
11.01.2018 15:00:00 7,6 4,4 8,2 7,5 5,5 7,8 5 3 9 5 N 1016,5 25 0 0,0
11.01.2018 14:00:00 7,7 5,2 8,5 7,5 5,2 7,8 7 4 10 5 NNW 1016,1 24 0 0,0
11.01.2018 13:00:00 7,0 5,5 7,6 6,5 5,0 7,8 5 3 9 5 N 1015,9 16 0 0,0
11.01.2018 12:00:00 6,9 5,0 7,9 6,0 4,8 7,8 3 2 7 4 NW 1015,7 27 0 0,0
11.01.2018 11:00:00 5,7 4,2 5,3 3,9 4,8 7,8 3 2 12 6 E 1015,8 23 0 0,0
11.01.2018 10:00:00 3,6 3,4 2,0 3,0 4,8 7,8 3 2 4 2 NE 1015,8 5 0 0,0
11.01.2018 09:00:00 3,3 2,9 2,0 2,8 5,0 7,8 3 2 7 4 ESE 1015,3 14 0 0,0
11.01.2018 08:00:00 1,6 1,5 0,6 2,4 5,2 7,8 3 2 8 5 NW 1014,5 3,2 0 0,0

tt = Température de l'air
td = dewpoint
tt 5cm = Température de l'air 5cm
tt -5cm = Température de l'air -5cm
tt -20cm = Température de l'air -20cm
tt -100cm = Température de l'air -100cm
ff = Vitesse du vent
fx = gusts
dd = Direction du vent
ppp = reduced air pressure
vv = visibility
sd = Ensoleillement
rr = Quantités de précipitations

stations d'obs. à proximité